SWR8YP LYBE-LSZH

Flight info

Callsign SWR8YP
Flight time N/A
Altitude 36000
Route TUVAR4L TUVAR DCT BEDOX DCT ERKIR DCT KPT L856 NEGRA NEGRA2A
Aircraft A320/M-SDE3FGHIRWY/LB1

Departure

Time 2026-04-27 17:35
Airport Belgrade Nikola Tesla Airport (LYBE)

Arrival

Time N/A
Airport Zürich Airport (LSZH)
Time Latitude Longitude Altitude Speed Heading
2026-04-27 17:33 44.82600 20.29002 342 ft 0 kts 60°
2026-04-27 17:34 44.82601 20.29006 342 ft 1 kts 61°
2026-04-27 17:34 44.82593 20.29217 342 ft 53 kts 111°
2026-04-27 17:34 44.82258 20.30009 342 ft 136 kts 122°
2026-04-27 17:35 44.81664 20.31364 724 ft 176 kts 120°
2026-04-27 17:35 44.81007 20.32800 1642 ft 171 kts 121°
2026-04-27 17:35 44.80375 20.34110 2434 ft 163 kts 121°
2026-04-27 17:35 44.79729 20.35488 2818 ft 177 kts 121°
2026-04-27 17:36 44.79023 20.37038 3112 ft 200 kts 120°
2026-04-27 17:36 44.78239 20.38790 3552 ft 218 kts 120°
2026-04-27 17:36 44.77396 20.40694 4030 ft 236 kts 120°
2026-04-27 17:36 44.76505 20.42712 4645 ft 247 kts 120°
2026-04-27 17:37 44.75586 20.44796 5355 ft 254 kts 121°
2026-04-27 17:37 44.74645 20.46928 5814 ft 259 kts 121°
2026-04-27 17:37 44.73607 20.49013 6058 ft 271 kts 135°
2026-04-27 17:37 44.71903 20.50277 6485 ft 285 kts 172°
2026-04-27 17:38 44.69989 20.49990 7221 ft 282 kts 206°
2026-04-27 17:38 44.68499 20.48301 8006 ft 276 kts 239°
2026-04-27 17:38 44.67926 20.45829 8756 ft 271 kts 270°
2026-04-27 17:38 44.68263 20.43286 9518 ft 269 kts 293°
2026-04-27 17:39 44.68985 20.40863 10303 ft 270 kts 292°
2026-04-27 17:39 44.69646 20.38410 11033 ft 273 kts 291°
2026-04-27 17:39 44.70289 20.35878 11751 ft 276 kts 290°
2026-04-27 17:39 44.70909 20.33347 12440 ft 278 kts 290°
2026-04-27 17:40 44.71531 20.30756 13109 ft 282 kts 290°
2026-04-27 17:40 44.72153 20.28133 13776 ft 284 kts 289°
2026-04-27 17:40 44.72770 20.25510 14421 ft 287 kts 289°
2026-04-27 17:40 44.73401 20.22809 15065 ft 291 kts 289°
2026-04-27 17:41 44.74028 20.20116 15687 ft 294 kts 289°
2026-04-27 17:41 44.74664 20.17374 16294 ft 297 kts 290°
2026-04-27 17:41 44.75301 20.14627 16891 ft 300 kts 290°